Terminal Aerodrome Forecast
Issued by NWS Caribou, ME

Home | Current Version | Previous Version | Text Only | Print | Product List | Glossary On
Versions: 1 2 3 4 5 6 7 8 9 10 11 12 13 14 15 16 17
000
FTUS41 KCAR 251700
TAFBGR
TAF
KBGR 251728Z 2518/2618 27010KT P6SM SCT050
     FM252300 24006KT P6SM SCT250
     FM261400 22010G18KT P6SM SCT060=

USA.gov is the U.S. government's official web portal to all federal, state and local government web resources and services.